Notices

What's New in latest Release from April 7th, 2021:

- Updated Glossary, including Speed of Maximum Gust, and Total Hourly Precipitation

- Updated national and regional climate services offices contacts and prices information

- Addition of station inventory lists for 1981-2010, 1971-2000, and 1961-1990 Normals.

If you haven't already, please take our survey and provide feedback about our website: https://eccc.sondage-survey.ca/f/LanguageSelection.aspx?s=442ca660-fcf1-47c0-95a9-59707d6fd709

Hourly Data Report for July 03, 2020

OTTAWA INTL A
ONTARIO
Current Station Operator: NAVCAN

45°19'00.000" N
75°40'00.000" W
114.90 m
6106001
71628
YOW

Download Data

Hourly Data (July 2020)
Hourly Data Report for July 3, 2020
TIME
LST
Temp Definition
°C
Dew Point Definition
°C
Rel Hum Definition
%
Precip. Amount Definition
mm

Wind Dir Definition
10's deg

Wind Spd Definition
km/h
Visibility Definition
km
Stn Press Definition
kPa
Hmdx Definition


Wind Chill Definition


Weather Definition


00:00 22.7 21.0 90   32 11 24.1 99.70 31   LegendNANA
01:00 22.4 20.9 91   32 10 24.1 99.72 31   Mostly Cloudy
02:00 22.1 20.4 90   33 13 24.1 99.69 30   LegendNANA
03:00 21.3 20.1 93   36 10 24.1 99.70 29   LegendNANA
04:00 20.8 20.0 95   4 12 24.1 99.74 28   Mostly Cloudy
05:00 20.4 19.3 93   5 16 24.1 99.80 27   LegendNANA
06:00 20.9 19.0 88   6 8 24.1 99.88 28   LegendNANA
07:00 22.4 18.2 77   5 16 24.1 99.91 29   Mostly Cloudy
08:00 22.9 18.6 76   6 14 24.1 99.94 29   LegendNANA
09:00 25.1 19.1 69   5 9 24.1 99.95 32   LegendNANA
10:00 26.4 17.3 57   6 10 24.1 99.95 32   Mostly Cloudy
11:00 27.3 16.0 49   14 4 24.1 99.93 32   LegendNANA
12:00 27.9 13.3 40   36 3 24.1 99.93 31   LegendNANA
13:00 29.7 15.6 42   8 8 24.1 99.87 34   Mostly Cloudy
14:00 29.6 16.4 44   36 2 24.1 99.84 34   LegendNANA
15:00 28.7 17.1 49   14 7 24.1 99.82 34   LegendNANA
16:00 30.1 15.8 42   10 10 24.1 99.80 35   Mainly Clear
17:00 30.5 10.0 28   34 21 24.1 99.77 32   LegendNANA
18:00 29.6 13.2 36   36 16 24.1 99.76 33   LegendNANA
19:00 27.3 12.5 39   1 16 24.1 99.80 30   Mostly Cloudy
20:00 25.2 12.6 45   6 9 24.1 99.82 28   LegendNANA
21:00 24.0 15.3 58   5 7 24.1 99.88 28   LegendNANA
22:00 21.5 15.4 68   6 4 24.1 99.89 26   Mainly Clear
23:00 20.1 15.1 73   5 4 24.1 99.88     LegendNANA

Notes on Data Quality.

Legend

  • E = Estimated
  • M = Missing
  • NA = Not Available*
  • [empty] = Indicates an unobserved value
Date modified: